RH
31 33 35 37 39 40 39 39 37 35 33 30 25 21 17 15 15 16 18 19 17 16 16 16 16 16 17 17 18 20 20 25 29 28 26 18 14 14 14 15 16 16 17 17 17 15 14 15 16 18 18 20 24 24 25 31 31 32 43 54 70 84 76 57 44 50 61 53 45 47 50 51 48 43 37 37 42 41 44 48 48 52 53 56 57 55 61 63
27 28 29 31 33 35 37 38 37 35 33 31 28 24 19 16 14 14 16 17 18 16 15 16 17 17 17 19 21 21 25 33 34 27 22 19 17 16 16 16 15 15 16 16 15 13 14 14 15 18 22 27 28 24 27 37 35 37 48 51 58 60 50 52 47 40 49 49 44 44 44 44 44 41 40 44 44 39 46 49 49 55 56 57 56 55 59 59
23 24 25 27 28 30 33 35 36 35 34 32 30 26 22 18 14 14 14 15 17 17 17 17 17 17 17 20 23 24 35 44 39 29 24 21 20 19 18 17 15 13 14 15 13 13 14 13 16 23 32 35 31 28 31 40 39 37 45 47 45 42 44 57 52 37 39 40 41 44 42 41 39 38 41 43 40 38 43 45 45 51 54 52 51 51 51 50
18 20 22 24 25 27 29 32 34 35 34 32 31 29 25 20 16 14 14 14 15 17 17 17 18 18 17 21 23 30 47 51 36 25 21 19 21 21 19 18 15 13 14 13 13 13 12 15 22 30 40 40 36 36 36 39 41 35 39 49 45 43 55 60 45 32 33 36 39 41 39 39 36 34 37 37 37 38 38 39 38 43 45 42 41 40 39 41
15 16 18 20 23 24 26 28 32 34 33 32 31 30 27 23 18 14 13 14 14 16 17 18 19 18 19 22 24 37 53 48 27 17 18 18 19 20 19 18 15 13 14 13 13 12 13 22 25 31 44 46 41 40 43 43 42 37 38 44 40 48 63 53 36 30 29 32 36 37 37 36 31 30 34 35 41 42 38 37 36 38 37 33 35 34 34 36
12 12 14 16 19 21 23 26 29 32 33 32 31 30 29 26 19 15 13 13 14 15 16 18 18 19 21 21 25 42 52 38 21 17 19 17 17 19 17 17 14 14 14 13 13 11 15 27 31 37 46 48 46 41 43 41 39 43 41 37 35 48 54 34 27 28 26 30 32 32 30 28 28 28 27 32 42 40 34 36 36 34 31 31 35 38 40 39
9 9 10 11 14 18 21 23 26 30 32 32 32 30 30 27 21 16 12 13 14 14 16 17 18 20 20 22 33 45 44 29 17 18 19 17 18 17 15 16 15 14 14 13 12 13 19 28 36 43 42 43 44 38 39 36 36 46 43 39 39 41 37 24 24 26 25 28 25 23 23 22 24 21 21 31 39 35 32 34 33 30 30 32 38 41 43 43
7 7 7 8 10 14 17 21 24 27 31 32 32 31 30 28 23 17 13 13 13 14 16 16 19 20 22 32 39 35 32 26 17 18 18 17 18 17 17 17 16 15 14 13 12 15 23 28 34 39 40 40 39 33 36 39 36 39 39 38 35 28 24 22 23 23 21 20 18 19 20 18 17 15 21 31 34 32 33 33 30 29 32 34 38 42 43 44
7 7 6 7 7 9 13 18 22 26 29 32 32 31 29 27 24 18 13 12 12 14 15 16 20 20 25 33 29 20 20 19 15 18 17 17 18 16 18 18 18 17 14 15 13 14 22 27 27 31 38 38 37 36 36 40 37 32 33 29 25 23 21 21 21 19 17 16 17 17 17 14 12 15 23 30 33 34 34 32 30 30 33 36 37 40 42 43
7 6 6 6 6 6 9 15 21 24 27 30 31 30 28 26 24 18 13 12 12 13 14 17 18 22 32 32 23 19 15 12 14 18 16 18 21 19 18 18 18 16 14 15 14 13 17 21 22 24 30 32 37 41 34 34 32 25 26 23 21 22 20 20 19 17 17 17 18 16 16 15 12 19 27 31 33 34 35 33 30 29 33 37 36 38 41 42
6 6 6 6 6 5 6 12 20 23 26 30 30 29 27 24 23 18 13 11 12 13 14 17 17 25 37 29 20 18 12 11 14 15 16 18 21 21 19 17 16 16 15 14 13 15 16 17 18 20 28 33 36 36 25 23 27 23 22 22 21 21 20 19 18 18 18 18 20 17 18 19 18 24 29 30 32 33 36 35 30 29 31 35 36 37 39 40
6 6 6 6 6 6 6 9 18 23 25 29 29 27 26 25 23 18 14 11 13 14 14 17 17 24 33 22 16 15 10 12 13 13 15 15 19 19 17 17 16 15 14 14 14 16 19 18 18 21 26 30 34 34 24 21 27 24 22 25 22 20 21 19 18 19 18 18 20 20 22 23 23 28 27 26 29 31 32 33 30 30 31 33 36 36 36 37
6 5 5 5 5 6 6 7 15 22 24 27 29 27 25 26 24 19 14 12 14 14 15 17 16 25 32 19 13 12 9 12 13 13 14 14 17 16 16 16 14 15 14 14 16 17 21 22 21 21 18 23 32 30 22 19 24 24 24 30 28 27 25 19 19 18 18 20 19 25 32 28 23 26 25 23 26 28 29 31 32 35 34 33 35 36 36 38
7 6 4 5 5 6 6 6 12 20 24 26 29 27 25 27 27 21 16 14 14 15 16 16 17 28 32 20 12 10 10 11 12 13 13 14 15 14 15 15 14 15 14 14 17 17 19 21 20 19 19 28 30 21 22 27 32 35 31 30 34 39 31 19 18 18 20 21 20 30 37 29 23 23 22 21 24 27 29 31 35 39 36 34 35 34 35 37
8 6 5 4 4 5 6 6 10 19 24 25 28 29 26 27 28 23 18 15 15 15 17 18 22 26 22 15 12 10 11 11 12 12 13 13 14 15 15 14 14 15 14 15 17 15 17 21 21 23 24 28 27 24 33 38 41 46 40 34 37 39 29 19 18 19 21 21 21 32 35 27 22 23 22 21 24 27 30 32 35 39 37 35 34 33 34 35
9 7 5 4 3 5 6 6 9 18 24 24 27 28 26 26 27 25 19 17 17 16 21 23 23 21 15 12 11 10 11 11 12 12 13 13 13 17 17 15 14 15 16 15 15 16 20 24 23 24 24 26 31 34 38 40 41 41 37 38 39 34 28 23 20 18 19 20 23 30 32 27 22 23 21 21 24 27 29 32 32 36 36 34 35 33 33 35
10 7 5 4 3 3 5 6 8 17 24 24 25 27 27 27 25 24 19 16 17 17 23 24 16 17 17 13 11 10 10 10 11 11 12 14 13 17 17 16 15 15 16 15 17 17 22 36 39 33 28 29 36 36 39 46 45 40 35 36 39 34 29 27 23 20 19 21 25 27 28 26 23 22 21 20 23 25 28 31 31 33 34 33 33 32 33 34
10 8 5 5 3 2 4 5 7 16 23 23 25 26 30 32 25 26 25 18 20 22 24 21 14 17 19 13 12 11 8 9 11 10 11 13 14 17 17 16 17 16 17 16 19 19 26 47 51 40 33 32 34 36 44 45 39 40 37 36 39 34 28 27 23 19 19 21 25 26 26 25 22 20 21 20 21 23 26 28 29 30 30 31 31 31 32 31
10 8 6 4 4 3 3 4 7 16 23 22 23 25 34 42 32 30 32 23 23 25 21 17 14 16 16 12 11 10 8 9 10 10 10 10 13 18 18 17 16 18 22 24 26 27 33 46 48 41 37 33 31 35 39 36 34 36 33 34 37 29 24 24 20 18 18 21 25 26 26 26 23 20 21 20 19 22 24 25 27 28 28 30 29 31 31 30
11 8 6 4 3 3 2 4 7 15 24 22 25 32 35 38 30 26 27 21 18 16 12 12 11 12 13 10 9 9 8 8 9 10 10 10 10 14 18 18 19 20 23 30 33 29 32 43 46 43 40 34 31 30 29 29 34 39 42 42 32 23 22 20 18 17 16 21 26 24 24 26 23 20 20 19 20 22 24 26 27 28 28 28 27 30 30 32
10 8 7 4 3 3 2 4 8 18 25 24 33 37 26 23 25 22 22 20 16 11 9 10 9 10 10 9 8 8 8 8 9 9 9 10 8 14 22 22 23 25 27 33 35 29 32 43 45 40 37 34 30 29 27 26 30 38 47 41 25 20 19 15 17 17 15 25 32 26 25 27 21 18 18 17 20 21 22 25 26 27 28 26 26 30 30 31
11 9 6 5 3 3 2 3 11 19 23 26 36 34 19 18 23 20 21 23 19 13 11 9 8 9 8 8 8 7 8 9 10 10 9 9 8 17 28 24 25 32 33 32 35 41 44 41 36 32 31 32 31 32 28 24 28 36 40 33 26 23 18 15 16 15 15 25 30 24 25 27 21 17 17 17 19 20 21 22 23 26 27 27 26 28 30 32
13 8 6 6 2 3 2 3 14 23 26 29 29 23 19 21 21 20 21 24 22 16 13 12 10 9 8 8 7 7 9 9 10 10 7 10 10 13 21 23 27 34 34 32 36 48 50 35 26 26 27 30 32 30 26 29 38 38 34 33 27 20 18 20 16 14 17 20 22 20 21 24 22 19 17 16 17 18 20 20 21 24 26 27 26 26 28 32
11 8 7 5 3 3 1 6 17 24 28 28 22 19 21 21 21 22 22 24 23 17 12 11 10 9 9 8 7 8 9 8 9 9 7 9 11 12 16 20 27 30 29 29 29 37 40 28 20 24 26 26 30 31 30 38 43 35 33 37 30 20 20 20 15 15 17 18 19 20 26 28 23 23 21 17 19 19 20 22 23 23 23 25 28 29 28 30
11 9 6 4 5 2 1 14 22 20 23 22 19 22 22 20 22 23 26 30 24 15 10 9 9 10 8 7 8 8 8 9 8 8 8 7 9 13 15 19 27 29 24 27 36 43 41 28 20 27 30 28 39 48 41 36 36 32 31 33 30 26 23 18 17 19 23 26 22 21 37 39 25 24 25 20 21 22 23 25 26 25 24 26 29 30 29 30
11 9 6 6 6 2 6 17 18 16 21 21 21 24 22 21 24 23 33 38 24 11 8 8 9 9 9 8 7 8 9 9 7 8 8 7 9 10 12 17 24 30 26 26 44 53 44 30 24 34 40 34 37 42 34 29 35 35 28 25 27 28 25 21 19 22 29 32 24 23 39 44 32 25 25 23 23 24 25 27 25 23 23 27 30 28 29 30
11 9 6 6 3 9 19 19 16 18 22 23 23 24 22 24 25 25 39 45 27 11 7 7 9 9 9 8 7 9 12 10 8 8 8 7 8 8 12 14 16 29 28 24 45 54 38 26 24 35 41 31 26 27 25 28 37 34 24 21 25 26 26 28 26 27 30 31 29 29 33 40 39 30 23 24 27 25 24 26 25 26 27 28 31 29 26 29
10 8 7 6 2 12 27 28 27 24 21 24 24 25 25 26 27 29 44 48 24 8 7 6 8 8 8 8 7 9 11 10 10 10 7 7 8 9 12 12 12 21 20 18 39 44 27 22 27 32 31 26 23 22 21 25 31 27 20 21 30 39 39 32 34 40 38 36 36 32 32 40 40 29 22 24 29 28 24 25 25 27 28 26 30 29 24 26
8 7 8 7 2 11 33 44 42 29 23 27 26 28 29 27 29 32 46 48 22 6 8 8 9 9 8 8 8 9 8 9 10 9 7 7 8 9 11 12 10 13 12 12 22 23 15 18 27 27 25 24 20 18 19 22 27 23 16 16 24 46 54 36 35 48 48 46 45 34 31 42 40 28 25 26 28 28 25 24 22 22 23 22 26 26 22 25
6 5 6 9 12 21 37 44 37 26 23 28 29 31 31 31 34 40 50 44 20 8 8 8 10 9 9 9 9 9 9 10 9 8 8 8 8 9 9 10 9 11 12 11 13 15 14 14 18 19 20 21 16 17 18 18 22 17 18 28 27 47 70 54 39 49 54 53 48 35 28 40 44 32 29 30 27 25 23 23 22 21 22 22 24 24 22 25
5 3 4 14 23 26 28 23 17 19 24 29 33 34 34 34 34 42 47 30 13 11 8 8 10 8 8 10 9 9 9 9 8 8 9 9 9 10 10 11 12 13 13 13 13 13 13 12 15 15 14 17 16 17 17 18 22 17 31 57 50 44 62 57 43 46 52 49 37 25 26 44 51 38 31 28 22 20 20 20 21 20 20 21 22 23 22 23
5 1 3 16 23 20 20 17 16 24 30 32 36 35 37 41 38 40 36 20 14 14 7 8 9 6 8 9 9 9 9 10 9 9 10 10 10 11 12 13 13 16 17 16 15 14 15 14 14 14 14 15 15 20 23 18 20 20 33 57 49 33 39 45 46 47 45 41 29 22 32 49 46 29 23 19 14 17 17 16 18 16 18 20 19 20 21 21
4 2 7 20 30 30 28 28 29 34 35 36 39 36 40 50 46 34 26 19 17 13 7 10 9 7 8 8 9 8 8 9 9 9 9 8 10 10 11 12 11 14 17 16 15 17 17 14 13 16 18 13 13 39 52 28 19 26 33 43 39 31 40 42 37 40 45 40 25 24 37 40 28 15 16 15 12 17 15 14 17 16 19 20 16 18 19 19
2 3 12 21 31 39 41 42 41 38 38 39 40 41 51 60 48 30 24 20 16 11 9 10 9 8 8 7 9 8 8 10 8 9 9 8 10 11 10 11 10 11 14 15 18 20 20 20 17 14 18 14 11 42 57 29 22 28 24 32 29 29 53 55 39 44 55 43 21 22 36 34 24 15 14 14 13 15 15 15 17 17 18 18 16 18 19 21
2 6 19 26 29 39 45 44 40 37 40 40 38 45 60 62 44 30 26 19 15 14 12 10 8 10 10 8 8 7 8 10 7 8 10 9 9 10 10 10 10 10 12 16 19 19 20 21 17 10 13 14 10 22 25 17 31 34 22 30 27 26 49 52 38 40 45 38 22 21 29 25 20 15 11 13 13 13 15 16 18 18 16 17 18 19 19 21
11 16 24 28 26 30 35 34 33 34 38 40 43 48 51 46 36 30 24 17 15 14 14 15 13 10 12 11 9 8 7 8 8 8 9 9 8 8 9 9 9 10 11 16 17 18 21 20 15 11 11 12 11 14 11 16 38 43 39 42 28 21 33 34 32 31 34 39 27 20 24 17 13 15 11 13 14 13 15 15 16 17 17 20 23 22 20 19
37 39 33 30 24 22 26 29 32 35 36 40 47 47 40 32 29 27 22 18 19 15 16 22 19 11 13 13 10 9 8 6 8 9 10 10 9 8 8 7 8 9 9 12 14 16 20 18 13 12 13 11 10 12 12 13 23 27 32 32 19 17 23 26 33 29 28 35 22 18 27 24 23 22 14 14 15 15 15 14 16 18 18 20 23 22 19 18
61 55 41 35 27 20 21 23 28 32 35 41 45 41 33 28 25 24 22 22 24 20 17 22 21 15 14 15 12 10 10 8 8 8 9 10 9 7 8 7 8 8 7 9 13 13 15 17 16 12 13 12 9 12 15 13 13 15 17 17 16 23 24 24 32 31 28 27 19 21 30 34 40 32 16 16 18 15 16 15 18 18 17 19 20 20 19 22
56 42 31 28 22 17 17 16 19 27 35 41 40 33 27 23 21 20 21 27 32 28 20 19 19 17 15 15 14 11 10 9 8 8 8 9 10 7 6 7 7 8 8 8 11 12 13 17 20 14 11 12 10 12 16 16 15 14 15 13 15 23 25 23 27 30 29 24 19 23 28 33 40 29 15 17 17 15 17 17 18 18 17 18 18 18 19 24
37 28 22 17 15 16 16 13 15 25 34 36 33 27 21 18 18 17 19 28 36 31 25 22 19 18 16 14 14 14 13 11 8 7 8 8 9 8 6 6 7 7 8 8 9 11 12 18 22 17 11 13 14 13 14 16 17 14 15 16 15 19 22 21 21 22 23 23 19 23 28 27 23 18 15 16 16 15 16 17 18 17 17 18 20 23 24 25
42 40 25 10 11 14 14 15 17 21 27 27 24 21 17 16 16 15 17 26 31 27 25 28 24 20 18 15 14 14 14 14 11 9 9 7 8 10 7 6 6 7 8 9 10 11 12 16 20 18 15 15 14 11 9 11 14 14 13 13 15 19 22 26 26 19 18 23 20 23 33 25 13 13 14 13 15 15 13 15 17 16 17 20 24 29 30 29
47 39 21 10 13 14 15 20 19 18 22 22 19 17 16 16 14 14 17 24 28 22 21 27 25 21 19 17 15 15 15 16 15 13 11 8 8 9 7 6 7 6 8 9 9 10 12 14 16 17 17 16 13 10 10 10 10 12 13 12 12 15 21 27 28 20 19 23 17 19 31 24 11 12 14 12 14 13 12 14 14 14 17 20 25 27 29 32
31 26 19 17 17 15 20 25 19 15 17 16 15 14 14 13 13 14 15 21 30 31 26 27 28 27 24 18 14 14 15 16 15 14 13 9 8 7 6 6 6 6 8 10 9 10 13 14 15 17 15 14 12 9 9 9 10 11 13 12 12 13 18 22 23 22 25 24 16 19 27 22 14 12 12 13 13 12 13 13 12 16 20 22 24 24 27 34
32 32 29 24 19 18 23 25 23 22 22 23 25 25 23 21 18 16 17 23 36 43 38 33 32 35 33 27 21 15 14 17 16 13 14 12 8 8 6 5 7 8 6 8 10 11 14 14 14 19 20 19 18 15 12 11 11 13 13 12 12 14 16 18 20 26 28 22 18 23 26 20 15 13 11 12 13 13 14 13 14 20 24 23 23 25 29 36
41 36 26 20 17 19 21 19 22 29 31 35 39 37 34 31 25 22 23 25 29 37 43 41 35 36 37 36 36 25 13 16 17 13 13 14 10 8 7 6 7 5 7 15 15 9 12 16 14 18 24 24 23 20 17 14 12 12 12 11 11 12 14 15 19 26 28 19 17 23 25 20 15 13 13 13 13 13 14 15 14 17 22 22 24 30 34 36
47 36 26 26 22 16 17 16 19 28 31 36 43 40 36 36 30 24 24 28 33 40 48 46 41 40 39 42 52 45 23 13 15 16 14 13 13 11 11 10 5 8 24 35 25 11 12 16 14 16 19 18 18 16 13 13 14 13 12 11 11 11 11 14 17 21 22 18 18 21 22 21 18 15 14 14 15 16 16 16 15 17 21 23 26 30 33 34
48 38 29 35 30 16 18 20 22 28 30 33 38 35 35 37 33 28 28 35 47 53 51 47 47 52 51 54 67 70 49 23 13 16 17 17 21 21 19 14 7 16 33 29 14 10 16 17 15 15 15 13 12 12 10 10 12 12 11 11 11 10 11 15 19 19 17 19 23 22 21 23 22 17 15 16 17 18 18 16 16 20 22 22 25 27 28 30
38 34 24 32 34 25 24 22 19 23 25 26 27 25 29 32 34 40 44 44 52 60 62 61 59 60 63 67 74 79 74 51 29 24 29 33 34 31 26 19 11 17 25 17 10 13 16 17 15 14 15 13 11 10 10 9 10 10 11 11 10 10 12 16 17 15 14 19 24 23 21 23 23 19 16 17 17 17 18 16 16 21 21 20 24 24 23 26
32 35 29 31 32 27 23 19 19 22 22 22 22 21 25 30 35 44 48 50 58 62 65 70 68 64 68 72 75 79 80 75 63 50 45 45 41 36 35 31 21 19 21 21 21 19 14 14 16 14 15 14 11 10 10 9 9 9 9 11 11 10 11 12 13 12 13 16 17 18 20 19 18 17 15 16 18 16 16 17 17 19 19 19 22 22 21 23
36 40 39 35 28 21 20 20 22 23 20 20 21 20 25 32 39 43 42 51 68 67 60 64 66 64 67 73 78 79 74 72 75 69 59 56 50 42 41 39 31 28 27 25 28 28 21 16 14 15 17 14 11 10 9 9 11 10 10 10 10 11 11 11 12 12 14 16 14 17 23 20 16 16 17 19 19 16 16 18 18 19 20 20 21 21 22 23
40 39 40 42 35 28 25 22 20 20 20 21 22 23 29 33 35 40 40 44 60 64 57 56 59 59 65 74 79 79 71 64 64 61 57 58 54 44 39 37 32 33 34 30 31 35 31 21 14 16 20 17 11 10 10 9 9 10 11 11 9 11 12 12 13 13 15 19 21 21 21 19 17 16 17 19 18 15 16 18 18 18 19 21 21 21 23 24
43 39 39 43 43 35 26 21 18 18 20 24 25 24 27 28 26 34 43 43 45 50 48 49 55 58 63 73 78 77 73 67 61 53 47 47 46 39 34 31 28 31 33 33 33 35 33 28 21 19 22 21 14 11 10 11 14 16 14 12 10 9 11 11 11 12 13 16 22 22 18 18 20 18 16 18 17 15 16 17 19 20 20 21 21 20 21 23
Wind_Speed
27 27 27 26 26 26 25 24 22 19 17 15 13 12 10 10 10 10 10 9 8 7 8 7 8 8 9 11 12 13 14 13 15 16 18 26 29 25 23 22 20 21 18 14 13 14 14 13 12 10 8 7 2 4 6 7 6 4 3 1 1 3 3 5 7 6 6 6 7 9 9 6 5 6 5 5 8 8 8 9 9 10 10 11 13 14 16 14
27 28 27 27 27 27 27 26 23 20 17 15 14 13 11 10 10 10 10 10 10 9 9 9 9 8 9 9 10 11 10 12 15 18 25 30 27 23 23 22 18 18 19 16 15 16 12 10 11 6 3 3 1 4 4 5 5 3 1 3 2 5 2 1 7 7 8 8 8 8 7 5 6 6 5 4 7 8 8 9 10 11 11 11 12 13 13 12
27 27 28 28 27 28 28 27 25 22 19 16 15 13 12 10 10 10 10 10 10 10 10 10 10 8 8 8 8 9 8 11 13 17 24 23 22 23 24 22 18 17 18 19 18 16 12 10 6 3 7 4 2 6 5 3 3 1 2 4 3 5 1 3 12 10 10 9 9 8 6 7 7 6 5 5 7 7 7 7 8 10 10 11 10 11 11 9
28 28 28 28 28 28 28 28 27 24 20 17 15 14 13 12 10 11 11 11 11 11 11 11 11 10 7 6 7 6 7 10 9 12 13 10 15 22 24 21 20 18 16 19 18 17 15 6 9 12 7 3 3 5 4 2 2 2 2 4 4 1 2 8 16 11 12 10 8 7 6 8 7 6 5 4 4 5 6 4 5 10 10 10 9 8 8 6
28 28 28 28 28 28 29 29 28 25 22 18 15 14 13 13 12 11 11 11 11 11 11 12 12 10 7 5 5 4 5 5 3 6 3 4 11 18 22 19 21 20 17 19 18 19 12 6 12 8 4 1 2 2 2 4 4 6 4 7 7 4 2 10 12 8 11 11 9 8 7 8 8 7 5 2 4 5 6 5 7 11 10 10 9 7 7 5
29 29 29 29 28 29 29 29 29 27 23 19 16 14 13 13 13 12 12 12 12 11 11 11 13 10 6 5 4 5 7 4 3 4 2 6 10 15 19 18 20 20 18 19 17 19 8 11 9 3 2 2 5 5 5 7 7 6 5 8 8 8 9 8 9 8 9 9 8 8 7 8 8 7 4 4 8 7 6 7 9 11 10 10 9 8 8 7
30 30 30 29 29 29 29 30 30 28 25 22 18 15 13 13 14 13 12 12 12 11 11 11 13 11 6 3 3 6 8 8 10 8 6 9 10 13 16 17 18 17 18 19 18 13 3 10 7 5 3 4 5 7 6 8 9 7 5 8 12 12 9 6 7 8 8 8 6 7 8 7 6 7 6 7 10 8 7 8 9 11 11 10 9 8 8 7
30 31 30 30 30 29 30 30 31 29 26 24 22 18 14 13 14 14 13 13 12 12 11 11 13 10 4 3 5 7 9 13 13 10 11 12 12 12 15 17 16 17 19 18 18 9 9 7 4 6 4 6 5 6 7 7 7 7 7 8 10 8 7 7 7 7 6 7 6 7 8 4 4 7 8 9 10 8 8 9 9 10 9 9 9 8 8 8
30 31 31 31 31 30 30 30 31 30 28 26 25 21 15 12 13 14 14 14 13 12 11 11 13 9 4 4 7 9 9 13 12 11 13 13 13 13 15 16 17 19 19 18 20 12 7 6 6 8 6 7 7 5 8 7 5 9 9 7 7 7 7 7 7 7 6 5 6 7 6 4 5 7 8 10 10 9 9 9 9 9 9 8 9 8 7 8
30 31 32 32 32 31 30 31 31 30 28 27 27 23 16 12 12 14 14 14 13 12 11 11 12 8 5 6 9 10 5 6 9 11 12 13 13 14 16 17 18 19 18 18 17 8 3 2 4 8 6 4 7 7 10 9 6 7 8 5 6 7 6 7 7 7 7 4 4 6 5 5 6 5 5 10 10 10 10 9 9 8 8 8 8 8 7 7
30 30 32 32 32 32 31 30 31 31 28 27 27 24 18 14 12 13 14 14 13 12 11 11 11 7 8 9 9 9 5 4 9 11 11 12 13 13 16 18 18 18 16 15 11 3 1 4 4 5 3 6 4 8 9 8 6 5 7 6 6 7 5 6 7 6 6 4 2 5 7 6 5 5 8 12 10 10 11 10 9 8 7 7 8 8 6 6
30 30 31 32 32 32 32 30 30 31 28 27 27 23 20 16 12 12 13 13 13 12 10 11 10 7 8 9 12 16 12 8 7 7 8 10 12 13 15 18 16 16 15 12 6 1 8 6 10 6 7 7 5 8 7 9 8 5 3 3 6 8 6 7 7 6 5 5 2 3 5 6 5 8 13 13 11 11 11 10 9 8 8 7 7 7 6 7
31 31 31 31 32 32 32 30 30 30 28 27 26 22 20 17 12 10 12 12 12 12 11 11 9 8 8 8 16 21 13 9 6 5 7 9 12 13 13 13 12 12 14 7 4 4 11 14 10 5 5 4 3 5 4 4 4 4 1 1 3 4 5 7 7 6 5 5 3 2 3 5 6 12 15 12 12 13 11 10 9 7 7 7 7 6 6 7
31 31 31 31 31 31 32 31 30 30 28 27 25 21 19 18 12 8 10 11 11 10 9 10 8 8 7 9 24 21 6 7 7 7 9 10 12 13 10 9 9 9 10 4 4 10 8 5 2 4 2 1 4 6 3 1 3 3 3 2 2 1 4 8 7 6 5 6 5 3 2 5 9 12 14 12 12 12 10 10 9 7 7 7 7 6 6 7
31 32 32 31 31 31 31 31 30 29 28 27 25 21 17 16 10 5 8 9 10 9 8 9 8 7 7 12 23 14 9 8 10 11 11 12 12 6 4 8 8 6 6 6 7 8 1 2 1 2 3 4 6 4 3 1 2 1 5 2 3 2 4 8 8 6 6 7 8 5 2 5 11 11 13 13 12 11 10 11 10 8 7 6 6 5 5 7
32 32 32 32 31 30 30 31 29 28 27 26 25 19 14 14 9 3 6 7 8 8 6 6 11 13 9 9 9 7 13 12 12 13 10 12 11 1 7 9 6 4 3 5 3 2 6 2 2 2 5 5 1 2 2 1 2 4 5 3 5 6 5 6 8 7 7 8 7 5 2 2 8 11 13 13 13 12 10 10 10 9 8 7 6 4 4 6
34 33 32 32 32 30 30 30 29 28 25 25 25 19 13 13 9 3 4 5 6 7 9 10 12 13 9 9 6 6 12 11 10 11 11 12 8 9 9 9 2 4 1 3 3 3 10 7 6 4 5 1 4 1 2 2 2 4 5 3 6 8 5 6 8 8 9 9 8 6 2 1 7 11 12 14 13 12 9 10 11 9 8 7 6 6 4 5
35 34 33 32 32 31 30 29 29 27 24 24 24 20 15 12 9 5 4 4 4 7 10 13 12 7 8 14 14 14 14 11 11 9 10 11 11 12 10 4 1 6 2 2 2 4 7 4 3 4 4 2 3 3 3 3 4 6 6 4 7 9 6 5 8 9 10 9 8 8 3 3 6 10 11 13 13 12 10 9 9 9 8 7 6 6 5 5
35 35 34 33 33 31 30 28 28 26 24 24 23 22 17 10 8 7 8 7 7 6 7 9 10 8 11 14 16 17 14 10 10 6 8 11 12 15 9 2 3 7 1 1 2 4 3 1 1 3 5 4 3 4 6 6 3 3 8 6 6 7 6 6 7 10 11 8 7 8 4 3 5 10 10 12 12 11 9 8 8 8 7 7 6 6 6 5
36 36 35 34 33 32 29 27 26 24 22 25 25 20 12 5 4 3 6 9 10 10 10 11 14 16 18 15 9 9 6 5 8 8 13 12 12 15 10 3 6 5 1 1 2 1 1 2 3 5 7 7 8 7 9 9 3 3 11 12 7 5 5 7 9 10 11 6 3 4 4 4 7 9 10 11 11 10 9 8 7 8 7 6 6 7 7 6
36 36 36 35 33 32 29 26 25 21 18 23 22 12 5 7 5 3 4 9 12 15 18 17 16 18 19 18 11 6 5 8 11 12 14 11 11 8 5 4 8 4 1 5 2 3 4 5 6 8 10 10 10 10 11 11 8 8 10 10 5 4 4 8 9 10 9 4 3 5 5 7 10 9 10 11 11 9 9 8 7 8 8 7 6 8 8 6
37 36 36 35 33 32 29 26 22 18 15 16 15 7 5 10 7 7 8 9 11 16 19 21 20 18 18 20 17 8 6 8 10 12 12 10 10 7 4 5 6 4 2 4 1 3 4 8 9 11 11 9 10 14 14 11 8 6 5 5 4 2 2 8 8 8 7 3 4 8 8 7 7 7 10 11 10 9 8 9 7 7 8 7 7 8 9 7
37 36 36 35 33 31 30 26 19 15 13 14 11 4 7 9 9 11 9 8 11 15 16 18 20 18 18 19 16 9 9 10 9 11 11 11 9 9 10 6 6 6 6 5 4 3 5 8 6 7 10 11 13 13 12 8 6 4 2 3 4 2 1 4 6 7 7 4 2 4 4 2 2 3 8 10 9 8 9 9 8 7 7 7 7 8 10 8
37 37 35 35 34 31 30 25 15 11 11 14 8 6 8 10 11 13 9 7 9 12 15 18 17 16 18 18 14 12 12 11 11 12 11 13 9 7 11 10 10 9 7 7 8 7 9 11 5 9 12 13 10 9 11 8 4 3 1 2 4 3 2 2 3 6 8 6 2 2 1 3 3 4 4 6 7 8 9 9 8 8 8 7 5 7 9 10
37 37 35 35 33 31 31 20 10 11 14 13 6 6 9 11 11 12 9 5 7 9 15 17 14 15 20 21 17 14 14 12 12 13 13 13 11 8 9 9 9 9 9 6 4 5 10 18 9 4 8 9 9 8 11 8 4 4 3 4 7 5 4 5 4 4 3 3 1 2 0 2 4 6 6 5 7 8 8 8 8 8 8 8 7 7 8 10
37 37 36 35 32 33 26 10 9 20 17 9 7 9 12 11 11 11 6 5 6 8 13 14 10 13 17 17 14 14 16 12 10 14 15 12 13 10 8 7 7 10 11 8 5 2 9 17 7 2 10 10 10 9 8 4 3 2 4 6 6 4 4 7 5 4 1 2 2 4 0 1 2 7 8 5 6 8 9 10 9 7 7 8 8 7 8 10
38 37 37 33 30 30 19 7 17 23 11 6 11 12 12 10 10 9 4 5 5 6 11 12 8 11 14 14 14 13 11 7 9 15 17 12 12 9 8 9 5 11 13 9 5 3 10 12 5 6 14 11 6 7 6 5 2 3 6 8 5 6 8 7 4 4 2 3 0 3 1 2 3 6 8 7 9 9 11 11 11 10 9 10 9 8 9 10
38 37 36 33 28 21 13 12 17 16 9 13 14 12 12 11 10 6 4 4 2 2 7 8 6 8 10 12 16 15 10 9 9 11 15 14 11 10 10 11 9 7 12 9 4 8 13 11 7 9 10 6 4 6 9 9 5 4 8 10 11 10 8 3 3 3 3 2 4 4 3 3 3 4 7 10 11 10 10 9 11 14 13 11 11 11 10 10
37 36 35 34 26 12 8 12 13 12 13 15 14 14 14 11 8 4 3 5 3 1 2 4 5 7 9 11 15 16 12 11 9 6 13 16 12 9 9 9 11 10 10 9 5 6 6 8 13 11 6 4 6 4 11 11 6 4 9 10 10 8 0 2 6 4 3 0 4 6 6 4 2 3 6 9 9 8 8 8 8 11 12 10 11 10 8 9
36 34 34 35 25 11 9 12 12 12 14 13 15 16 14 9 5 5 5 3 3 3 3 4 5 9 12 12 13 16 15 13 12 8 10 13 13 12 10 9 9 10 9 9 9 6 3 5 12 11 6 5 7 7 12 11 8 7 6 7 2 10 3 2 4 4 3 0 6 11 12 5 1 3 5 5 8 7 8 9 9 11 14 13 12 10 9 10
35 32 31 31 22 12 10 9 8 12 12 13 17 16 11 5 4 5 5 3 5 7 6 7 8 10 13 15 12 14 17 15 14 11 8 9 11 11 9 9 7 7 7 7 9 8 6 6 8 7 7 6 8 10 11 12 12 8 4 1 1 6 4 2 3 3 2 3 7 11 11 4 1 4 6 6 11 12 9 10 10 12 13 13 12 12 12 11
34 31 28 23 16 12 10 10 13 16 14 15 15 10 6 5 6 6 6 5 4 4 6 6 9 11 13 16 13 13 15 13 13 13 11 10 9 9 10 8 6 6 6 6 7 7 6 9 8 8 7 7 8 6 6 11 13 8 7 3 3 3 3 4 3 2 2 4 7 12 12 3 2 5 8 10 12 10 9 9 9 10 11 11 12 12 11 10
33 30 25 17 11 11 11 12 15 14 14 14 10 6 4 6 7 7 8 8 2 1 2 8 9 11 13 13 13 14 14 13 14 15 14 12 10 10 13 13 11 9 6 4 5 4 5 8 10 10 8 10 9 3 2 5 5 5 6 1 4 2 2 3 3 2 2 6 6 14 13 4 3 6 8 10 11 7 7 10 8 8 10 8 9 11 11 10
33 28 23 16 12 13 12 12 12 11 13 11 6 5 7 7 7 8 11 10 7 7 7 10 13 11 11 11 12 13 13 13 16 15 14 12 9 9 11 14 16 12 6 5 4 4 6 5 9 10 8 9 10 8 8 6 1 3 7 4 6 2 2 1 2 1 3 6 6 12 7 3 2 7 8 10 11 8 7 10 9 9 8 6 8 10 10 10
31 27 23 18 14 11 10 10 10 10 10 7 5 6 8 7 7 8 9 9 9 12 12 12 14 11 8 10 12 14 13 11 15 15 13 13 11 9 10 11 14 13 8 6 3 4 7 5 8 10 8 9 8 9 10 6 1 1 3 4 6 2 4 3 4 4 3 3 4 5 3 3 4 8 10 9 9 9 9 10 9 9 8 6 7 9 9 10
31 27 20 14 9 4 4 7 8 8 7 5 6 8 8 7 7 7 7 8 8 8 12 14 12 11 9 8 10 14 15 12 13 12 10 14 13 10 11 10 12 14 10 7 3 3 6 4 4 9 10 10 8 8 8 4 3 2 2 3 4 4 5 3 3 5 2 1 3 3 4 6 6 7 8 10 10 10 10 10 9 10 8 5 5 7 7 8
28 22 17 13 8 5 4 7 8 7 6 6 7 7 7 8 9 10 11 11 11 9 9 10 9 8 8 8 8 12 14 12 13 11 9 12 12 12 15 12 12 15 13 10 6 4 5 4 5 9 10 9 8 10 11 10 8 5 3 2 3 6 8 3 1 2 2 3 3 4 3 2 4 5 7 10 10 9 10 11 10 11 9 5 5 6 7 8
22 16 13 11 6 7 7 9 9 8 6 5 9 9 9 10 10 12 13 11 15 14 9 7 7 8 8 8 8 11 13 11 12 11 10 10 10 13 16 13 12 15 15 12 7 5 6 5 5 8 7 7 8 8 9 11 10 6 3 2 2 4 4 2 2 2 2 2 3 7 6 1 1 3 7 10 9 9 11 11 12 11 9 8 7 7 8 7
17 11 6 3 6 10 10 11 9 8 5 6 8 7 8 12 13 14 13 8 11 13 10 8 8 8 9 10 9 11 13 12 11 11 10 8 8 11 14 12 11 14 14 13 9 5 5 4 4 6 8 7 7 6 6 7 11 10 7 5 4 2 1 2 1 1 2 2 2 7 6 2 3 5 8 10 9 9 10 10 11 11 10 9 8 8 8 8
12 7 2 8 12 13 12 12 8 5 6 7 8 8 9 11 12 14 13 8 5 8 9 10 10 8 10 12 11 10 10 12 13 10 9 8 8 9 11 11 10 13 14 14 11 7 5 4 3 6 9 8 5 6 7 6 8 9 7 6 6 5 2 2 2 3 3 2 1 4 2 1 4 6 8 11 10 9 9 10 10 10 10 8 7 6 6 9
9 5 1 13 18 14 12 10 6 5 7 7 8 10 11 10 11 14 12 7 6 8 9 12 14 11 11 11 11 9 9 10 11 9 9 10 9 8 9 11 11 12 13 13 11 8 5 5 5 6 6 7 7 8 9 9 7 7 6 6 6 5 4 3 4 5 3 1 1 4 2 0 4 6 7 9 9 9 10 11 9 9 10 8 7 7 6 8
6 4 8 19 20 13 9 6 5 5 6 7 9 11 11 11 12 13 10 5 6 9 10 12 15 14 12 12 11 10 9 8 9 10 10 11 11 9 9 10 12 12 11 9 10 9 6 5 6 6 5 7 9 9 10 11 10 9 6 5 6 5 5 4 3 3 2 2 1 6 4 1 5 8 6 7 8 9 9 9 8 9 10 9 8 8 7 9
4 7 15 20 14 8 7 5 5 6 6 7 11 12 13 13 11 11 11 7 4 7 7 8 11 12 12 12 12 11 10 10 10 11 11 12 13 12 10 10 11 13 10 7 7 8 6 5 6 6 6 8 9 9 10 11 10 9 6 6 6 4 3 4 3 1 4 4 2 5 5 3 6 7 5 6 7 9 8 8 8 8 9 9 9 9 7 7
5 8 10 11 7 5 6 5 5 6 6 9 12 12 13 12 11 10 10 6 2 4 6 8 10 12 11 12 13 13 12 9 9 10 11 11 10 12 14 12 12 13 10 7 6 5 4 6 7 6 6 7 7 8 9 9 8 6 5 7 7 7 7 6 6 2 3 5 5 1 4 4 6 6 6 7 8 8 7 6 8 9 8 7 8 8 7 6
6 5 5 7 7 6 5 5 6 6 7 10 12 13 12 10 11 11 11 10 7 4 3 6 8 11 12 15 15 16 16 12 9 8 9 10 8 11 16 13 16 14 6 4 7 7 4 6 6 6 7 6 5 6 7 6 6 6 7 10 9 9 10 6 5 3 3 4 6 1 4 3 6 7 8 9 9 8 7 4 6 10 8 6 7 7 7 6
5 4 5 6 5 5 5 6 5 5 7 9 9 10 12 10 10 10 10 11 9 6 4 4 8 9 10 13 15 15 18 16 11 9 8 9 8 7 13 16 16 7 6 5 5 7 4 6 7 9 9 8 8 8 7 6 6 7 10 12 11 10 10 7 5 4 3 3 4 4 7 6 5 7 9 10 8 8 9 5 6 9 7 6 7 7 7 6
4 5 6 6 4 5 5 4 5 6 7 8 6 8 12 12 11 10 8 7 10 12 7 2 6 6 7 11 12 13 19 19 15 12 11 9 9 11 18 20 14 3 14 9 6 4 4 7 10 13 13 13 13 12 10 8 9 10 11 12 13 12 12 9 6 5 5 3 2 5 10 8 5 7 8 10 8 8 10 6 6 10 8 6 8 7 8 8
5 6 6 5 3 5 7 7 9 9 10 9 7 8 12 13 12 9 8 9 11 12 7 3 8 9 8 10 8 10 16 16 13 9 8 10 12 12 14 16 12 10 15 10 7 3 5 6 9 13 15 16 17 16 14 11 10 11 11 11 12 12 12 10 7 7 7 3 2 5 7 8 8 9 8 10 8 9 10 7 6 10 8 8 10 9 9 10
5 5 6 7 6 7 9 11 10 10 11 9 7 9 11 11 11 8 8 9 8 8 7 6 10 12 10 10 8 7 9 10 9 7 10 12 13 10 9 10 10 12 14 11 8 7 7 5 8 12 14 17 18 17 16 14 12 12 12 11 11 11 12 12 10 11 9 6 6 8 7 6 5 5 7 8 7 7 9 7 7 10 10 10 10 9 9 10
5 4 6 8 8 8 9 9 9 8 8 7 7 8 8 8 9 8 8 9 6 6 8 9 12 13 11 9 7 7 8 12 12 12 14 13 12 9 7 7 8 12 13 10 8 8 7 5 7 10 11 14 16 16 15 15 15 14 12 11 11 11 12 12 11 11 10 9 10 10 7 5 3 5 6 5 5 7 8 9 9 9 10 10 9 9 9 9
8 8 7 6 6 8 8 8 7 7 7 6 6 6 7 8 8 8 8 7 5 4 7 10 11 11 9 9 9 9 12 15 16 16 15 13 11 10 8 8 10 11 11 9 7 8 7 5 6 8 7 9 13 16 17 17 17 16 14 14 13 11 10 10 9 8 7 7 8 8 7 6 5 7 8 7 6 6 7 9 8 7 10 10 8 9 10 9
11 10 9 6 6 7 8 8 8 8 4 3 5 6 7 8 9 9 7 5 4 5 7 10 11 10 7 7 8 10 13 16 17 17 15 12 13 14 11 12 15 12 9 8 7 6 7 6 6 7 6 7 12 17 16 13 13 12 10 11 12 11 10 9 8 9 9 7 5 5 6 4 3 3 6 9 7 6 6 8 8 6 9 10 7 9 10 10
Wind_Direction
15 15 15 16 15 14 13 11 8 2 356 350 342 337 329 322 317 315 318 316 311 299 288 285 276 270 268 269 272 272 273 271 265 252 241 248 248 243 249 254 243 227 224 215 217 241 238 230 240 250 259 254 294 335 344 2 348 4 39 340 124 172 223 230 232 213 177 187 178 170 184 174 147 147 139 139 127 121 117 108 104 98 98 102 107 119 129 141
13 13 13 12 12 12 11 9 6 2 356 349 340 333 324 315 308 305 306 308 310 303 297 292 287 283 278 281 282 282 285 272 263 257 251 251 251 247 247 249 240 221 216 215 222 240 243 244 247 248 338 0 332 318 349 4 329 22 92 272 240 215 203 166 248 218 158 175 175 170 181 163 146 142 140 160 139 126 123 121 120 114 115 118 123 132 137 152
11 11 10 10 9 9 8 6 3 1 356 349 341 330 321 311 301 297 296 297 302 303 301 295 292 293 289 289 285 290 297 279 263 256 255 249 243 241 240 237 229 220 216 217 225 236 241 259 275 71 51 27 338 329 347 3 340 35 221 277 255 232 108 157 226 206 157 168 160 165 180 152 143 141 153 169 149 138 130 136 141 129 129 130 133 141 146 164
8 7 7 7 6 5 5 4 1 358 354 349 341 331 319 307 296 290 288 288 292 297 300 298 296 295 296 293 287 292 285 283 266 249 256 244 233 231 229 227 222 222 220 220 230 240 244 279 35 64 63 10 339 339 323 309 320 245 225 267 244 230 47 195 208 189 154 156 147 165 170 144 146 145 155 172 153 138 118 116 125 125 130 131 131 137 143 162
4 4 4 4 3 3 2 2 359 356 352 349 343 333 319 306 294 285 280 281 283 288 295 297 295 294 301 292 288 282 263 288 260 231 235 210 225 224 222 224 221 217 215 221 234 246 248 57 56 58 71 67 279 306 259 250 257 254 229 230 225 107 159 197 180 159 145 147 154 166 160 155 155 138 143 138 102 97 95 92 99 116 124 123 124 125 124 129
1 1 1 1 1 360 360 359 358 355 350 348 344 334 321 306 292 282 275 275 277 280 287 292 293 294 297 286 281 253 244 287 300 254 213 201 212 219 223 225 220 213 212 223 237 249 240 91 84 80 92 204 220 222 233 236 229 249 253 224 217 180 191 181 140 145 144 147 161 154 148 158 149 133 145 109 94 92 91 95 101 110 115 117 123 122 117 114
359 358 358 358 358 357 357 357 356 354 349 346 344 338 324 306 292 280 272 270 271 273 278 286 289 291 297 290 262 241 239 270 287 273 233 207 204 215 220 220 217 209 212 223 233 242 144 103 113 124 186 223 216 221 211 225 225 230 237 198 206 204 181 140 140 158 149 142 145 146 152 159 149 140 140 105 100 107 105 103 107 111 115 125 126 119 114 108
357 356 356 355 356 355 354 355 354 353 349 345 343 340 327 308 292 279 269 265 266 267 271 279 284 290 295 266 254 253 242 247 250 236 221 202 202 209 206 210 207 206 215 224 234 226 109 122 167 134 198 229 203 218 191 199 218 215 222 192 189 187 146 141 154 150 135 125 143 161 154 147 138 133 124 112 116 122 118 113 115 119 128 137 127 120 121 116
355 354 354 353 353 353 353 352 352 351 348 345 342 340 330 311 292 278 267 260 261 262 265 272 279 285 270 246 266 275 262 240 220 206 213 198 202 205 193 198 198 206 218 223 233 229 151 168 196 160 191 208 168 204 213 194 202 205 211 197 161 137 141 158 149 145 140 142 165 147 126 116 126 133 118 116 127 127 127 127 126 133 144 142 130 134 137 133
353 353 352 352 351 351 351 349 350 350 347 345 341 338 331 317 294 278 265 257 256 256 259 265 274 278 242 241 263 275 285 237 201 191 204 194 192 195 193 198 196 206 223 230 233 234 212 232 199 182 191 165 147 208 218 193 208 207 183 164 140 137 158 158 145 152 141 145 165 126 126 134 143 183 134 120 132 133 138 136 136 149 154 148 141 146 146 142
352 351 349 350 349 348 349 348 348 348 346 344 341 337 330 320 298 276 262 254 251 252 254 259 269 266 242 253 267 275 300 253 204 183 191 192 185 189 203 209 202 208 224 236 237 194 147 302 253 189 112 90 137 240 228 196 217 205 161 151 150 148 159 158 149 159 145 141 186 140 144 150 162 186 137 131 140 143 146 140 150 166 157 158 154 148 156 153
353 350 348 348 347 347 347 347 347 346 344 342 341 336 328 321 300 273 259 251 247 248 247 255 266 257 255 268 258 255 260 252 217 186 190 196 197 202 215 220 214 221 234 237 267 76 142 219 255 203 147 139 176 236 216 196 197 181 159 146 168 163 164 175 158 173 172 145 194 176 148 170 170 131 126 137 145 149 147 143 163 176 162 164 160 157 172 158
353 350 347 345 345 345 344 345 346 344 341 339 339 334 327 321 302 268 254 246 244 245 245 256 260 251 261 280 271 264 255 234 212 208 210 200 212 217 221 236 229 234 254 255 353 304 178 190 239 229 186 168 212 240 187 198 180 135 33 9 214 183 170 180 156 178 186 130 149 208 172 170 141 126 133 143 149 151 147 149 168 182 174 163 162 178 172 147
354 350 348 344 343 342 341 343 343 342 339 336 338 332 327 323 305 262 248 242 242 243 243 254 248 248 247 257 276 276 252 232 217 211 223 216 221 217 212 241 245 234 261 264 184 234 211 157 314 318 307 106 238 238 145 7 28 47 300 261 240 280 171 170 153 182 177 129 146 183 206 153 131 134 142 147 155 157 152 156 166 177 186 167 165 185 162 145
354 351 348 344 342 341 339 340 341 341 336 333 335 331 328 327 314 260 245 238 240 241 244 257 232 240 259 257 269 257 193 231 238 219 215 217 219 222 230 222 235 241 259 274 210 211 205 88 334 333 276 234 229 231 107 96 89 162 260 212 192 235 183 159 155 189 170 143 166 189 233 138 138 145 151 154 161 168 163 161 166 170 182 175 167 181 163 150
354 352 349 346 343 340 338 338 338 339 333 328 332 328 326 332 326 275 248 238 242 235 222 248 214 214 253 276 271 202 190 221 238 221 199 222 217 143 298 246 218 238 248 306 282 58 34 6 322 17 256 255 28 43 68 263 173 194 231 197 203 218 192 159 161 188 174 146 166 205 297 94 137 148 161 163 164 178 176 166 170 171 177 177 169 183 172 151
354 351 349 347 343 340 337 335 335 337 331 324 329 325 317 323 317 275 242 234 244 229 211 248 241 221 247 271 262 216 215 214 222 209 188 223 181 129 270 267 233 259 258 337 282 50 40 26 358 346 251 194 71 13 234 229 218 215 239 222 223 230 210 166 167 184 179 158 167 193 236 154 146 154 171 169 167 182 183 174 173 173 178 176 176 176 170 166
353 350 349 347 344 342 337 333 333 335 328 319 324 324 314 306 293 277 258 212 211 232 227 253 266 248 241 246 242 242 237 211 211 214 197 206 148 150 239 245 152 271 286 313 278 60 53 43 340 303 260 181 147 234 238 244 232 214 227 205 209 225 211 178 174 177 180 178 184 180 190 255 168 158 175 174 175 184 185 183 172 175 178 172 185 171 162 183
352 350 348 346 344 342 337 332 331 333 327 316 321 324 313 288 267 263 247 207 183 214 221 218 221 226 246 243 230 236 241 203 191 215 224 214 171 173 202 152 237 259 271 309 343 58 62 36 294 256 250 238 228 227 229 255 281 267 269 253 207 200 188 188 171 163 178 184 192 189 174 255 201 163 173 178 180 188 187 185 174 175 175 169 184 169 161 172
351 350 347 344 342 341 338 332 329 332 324 316 323 323 308 288 263 232 227 224 215 229 239 218 200 213 246 258 230 212 222 183 177 215 225 219 203 180 151 128 235 238 137 54 6 25 214 234 235 235 238 249 261 256 246 244 204 224 269 261 220 184 173 174 154 158 185 178 180 209 160 212 216 170 175 183 177 189 188 184 183 174 171 178 180 168 163 161
351 350 347 344 341 340 338 331 326 326 317 313 316 311 338 10 343 348 324 265 238 236 246 245 227 220 236 251 246 205 211 211 194 220 228 207 208 192 130 189 205 204 89 95 69 332 304 264 243 234 235 247 261 266 262 250 217 204 243 261 235 198 172 149 145 161 182 184 189 204 185 210 220 178 173 180 171 186 188 180 188 179 174 179 177 165 156 156
351 350 347 343 340 339 336 331 323 316 312 307 294 277 14 12 340 332 326 288 263 249 247 251 249 246 247 255 259 256 279 253 203 214 219 191 202 192 157 223 208 201 190 126 96 329 286 258 248 241 233 232 249 256 256 255 257 244 237 279 297 274 156 134 144 163 166 184 208 205 198 196 213 187 172 174 171 179 184 177 178 182 177 173 179 165 145 154
350 349 348 344 340 336 334 331 316 301 300 294 288 317 3 347 333 327 307 282 281 263 248 245 244 247 249 255 261 251 257 259 236 225 198 183 214 186 159 198 213 206 204 193 206 204 251 260 240 237 237 222 227 239 246 255 278 282 264 276 287 300 228 139 143 165 164 157 201 231 210 151 292 244 175 172 172 170 175 172 166 176 174 162 173 162 145 157
349 350 348 345 340 334 334 329 304 287 288 280 295 11 354 331 332 328 311 280 275 262 250 243 238 239 239 243 246 239 238 238 244 248 214 194 208 172 158 186 200 209 219 215 223 223 261 280 224 198 225 219 222 245 245 249 245 227 247 287 279 310 283 219 149 169 170 158 168 277 208 166 247 251 199 174 174 177 171 164 168 175 163 144 156 168 161 160
348 350 348 346 342 334 333 325 301 321 313 291 315 11 342 334 333 328 321 280 261 254 243 237 235 236 233 233 231 233 239 232 229 245 239 207 200 196 186 184 180 208 224 206 221 238 255 271 262 213 254 219 191 228 234 238 245 209 178 225 259 296 292 244 201 171 173 173 123 3 273 204 207 213 219 200 188 188 166 158 176 171 154 151 165 181 173 156
347 349 348 346 342 337 335 328 329 329 312 303 358 355 334 334 334 329 315 266 264 249 224 213 214 216 219 224 219 227 240 235 218 238 248 215 203 228 222 198 164 186 211 181 155 235 243 256 258 120 271 243 183 197 207 207 265 244 197 211 245 291 283 253 215 142 113 286 66 73 102 251 227 222 215 213 222 199 169 170 179 170 166 168 170 183 176 156
346 348 347 343 342 342 336 320 330 322 309 355 358 338 332 336 333 324 292 263 265 235 207 195 185 180 195 210 204 214 237 231 205 225 242 215 191 218 234 241 205 166 189 187 159 231 227 237 244 195 230 236 202 207 186 165 205 248 225 208 198 221 232 245 238 133 97 293 105 98 277 267 252 234 200 204 239 218 184 179 173 172 188 173 160 184 180 162
344 345 346 341 339 339 310 294 318 313 317 346 338 328 334 333 322 304 266 271 257 194 198 182 141 144 189 215 207 210 228 238 226 209 222 217 189 200 220 241 255 201 200 211 191 206 207 204 214 221 215 206 236 213 167 176 212 251 232 202 178 200 221 186 111 82 70 279 237 188 211 247 244 224 186 193 221 217 191 190 181 171 178 170 165 185 180 162
341 342 344 339 336 336 299 291 298 298 309 322 325 327 325 318 308 277 247 277 286 330 198 158 132 161 202 225 213 212 219 234 245 204 208 216 196 205 236 237 251 258 239 243 241 206 198 170 179 201 205 203 255 205 161 182 219 239 233 216 168 146 190 89 102 74 60 285 250 208 194 226 242 205 198 191 202 209 182 190 200 169 168 181 175 175 166 155
340 340 342 339 334 337 321 286 272 297 310 313 322 321 310 301 276 240 225 246 272 246 162 138 183 193 201 220 217 211 212 223 235 214 207 214 193 199 249 258 252 270 257 241 241 211 156 172 187 197 202 211 242 216 176 182 225 238 227 250 157 105 81 311 103 93 78 277 249 221 199 199 225 212 233 199 181 202 185 180 197 177 175 185 169 157 161 164
338 338 340 336 324 316 309 282 294 329 322 319 325 314 296 270 234 241 228 244 291 251 189 166 198 203 204 216 219 208 208 222 229 214 202 216 208 199 227 246 240 260 263 248 237 202 173 225 221 188 187 213 227 214 179 174 222 236 136 81 326 109 139 207 106 118 168 237 226 193 171 166 263 220 233 205 172 185 187 171 180 177 173 173 163 162 166 165
336 338 337 332 317 297 283 287 319 330 322 323 322 303 278 241 228 239 235 253 298 232 204 208 206 204 210 218 224 213 206 218 227 220 204 198 214 220 219 227 223 230 246 249 231 196 190 231 216 161 169 221 225 209 171 174 204 203 113 113 223 153 172 181 161 193 197 250 216 158 143 162 229 181 193 186 162 166 167 153 165 163 151 158 165 163 158 160
336 336 334 331 312 285 276 290 307 315 319 321 310 279 261 245 233 234 239 244 256 156 289 298 265 222 208 215 224 221 216 212 215 228 224 201 203 223 218 217 226 235 238 243 243 223 214 219 204 174 168 209 214 185 185 200 200 157 119 148 234 187 189 199 209 202 188 257 208 146 145 197 195 142 152 151 135 129 129 133 145 129 120 146 162 155 153 155
335 335 333 327 301 277 272 282 294 307 315 309 287 251 245 244 243 244 245 245 260 281 280 283 277 247 212 213 218 218 223 213 205 222 236 222 212 223 220 213 218 230 238 237 245 241 237 220 207 196 169 193 201 170 178 194 174 142 146 189 252 223 122 201 239 189 198 226 173 135 144 234 176 119 115 118 120 128 122 115 116 110 120 162 160 147 147 137
336 336 330 312 287 270 263 271 285 301 305 292 262 242 234 238 245 244 249 255 264 276 279 277 272 260 234 231 225 217 223 220 207 213 231 233 222 214 222 217 212 220 226 225 219 222 240 229 202 202 184 194 201 175 176 171 134 300 145 207 255 207 153 190 191 185 205 205 158 135 152 166 130 107 111 122 129 140 131 114 120 131 147 167 144 135 138 134
336 337 331 306 286 278 278 292 303 300 290 272 250 240 235 240 247 249 259 270 272 282 303 302 274 248 238 238 239 228 221 218 214 213 228 240 235 222 229 226 208 212 217 218 218 216 241 254 211 209 201 199 197 176 175 159 157 205 160 205 242 216 218 238 177 178 200 207 185 168 144 142 140 120 124 138 139 143 137 128 143 145 138 140 116 123 142 149
333 333 324 302 311 359 335 326 326 299 276 257 249 247 252 250 246 257 265 282 304 306 304 306 285 263 253 238 240 236 225 221 219 219 224 234 233 221 229 235 210 209 216 216 222 228 234 269 261 231 210 200 196 186 187 184 185 199 179 176 257 243 234 229 182 208 200 195 183 148 121 116 143 137 139 145 145 151 146 139 146 137 132 150 133 138 167 165
320 312 302 284 311 360 344 334 323 291 265 249 253 252 259 262 254 259 266 286 308 297 263 264 286 284 275 261 247 241 241 233 218 220 225 229 226 210 219 233 214 205 214 213 208 224 232 253 266 245 219 198 196 201 205 186 181 211 228 182 251 260 245 203 216 254 219 202 148 133 139 136 179 149 150 155 156 159 153 146 147 141 145 168 158 166 182 155
306 295 307 337 354 353 340 325 308 281 255 244 253 248 250 259 257 259 263 277 305 295 269 263 276 271 269 275 272 253 249 244 225 220 219 218 224 210 209 220 209 198 208 215 207 204 223 249 276 241 216 205 193 200 224 189 175 199 220 210 198 189 261 275 218 220 253 261 129 131 142 169 209 188 164 156 154 162 158 149 152 152 156 169 162 170 173 137
311 297 359 27 353 340 333 312 285 262 256 247 252 258 258 258 257 256 251 238 259 279 279 280 278 272 268 269 270 267 264 258 245 230 216 213 221 220 213 217 216 203 202 211 215 209 200 202 256 233 204 207 207 195 220 214 185 194 213 217 197 160 171 254 238 218 237 293 103 126 123 157 168 172 159 145 148 165 161 152 160 160 155 163 154 150 153 132
315 289 351 9 349 334 327 303 261 247 256 248 250 257 263 269 270 267 255 229 231 248 265 280 278 275 277 275 266 262 268 269 262 251 237 223 217 223 221 217 222 216 205 206 207 207 200 184 221 248 215 215 220 203 215 225 212 205 207 221 214 170 156 205 246 230 202 233 179 122 107 170 121 119 128 132 147 169 161 154 163 159 150 152 141 134 135 128
297 287 315 336 335 325 321 298 266 275 256 252 262 261 266 266 264 272 271 238 235 247 247 260 272 271 271 284 286 270 267 275 272 261 248 233 226 225 213 208 223 226 216 214 204 198 210 205 212 238 239 235 231 217 221 228 232 228 212 224 233 188 167 194 244 291 307 284 196 116 118 154 100 96 111 139 161 165 153 150 157 156 147 139 133 135 137 131
308 311 306 312 314 310 308 290 280 280 260 269 275 269 273 268 255 261 269 261 257 273 265 264 284 284 266 272 281 270 268 276 270 263 258 247 236 233 218 199 223 237 221 214 212 200 214 226 219 233 240 237 235 234 232 224 230 240 219 214 226 202 199 196 159 328 305 279 234 135 142 149 111 110 126 142 148 143 143 157 159 147 136 133 136 140 142 134
315 298 292 299 305 301 295 294 302 297 298 310 307 299 297 293 285 269 267 281 288 278 288 288 301 312 302 292 283 266 264 273 267 262 266 259 245 252 247 211 205 232 225 194 187 183 205 219 214 230 238 227 224 235 236 217 216 245 241 225 218 202 208 188 140 150 262 265 272 163 131 138 121 133 148 133 128 131 137 150 138 120 117 133 139 138 142 125
307 282 283 319 329 314 291 288 303 308 317 327 326 320 314 306 304 295 286 289 281 262 292 295 301 315 317 314 303 277 262 261 269 269 269 272 262 263 267 238 210 222 233 190 181 177 204 224 207 216 233 230 222 227 234 218 207 225 239 243 235 217 219 201 156 183 208 243 265 189 133 149 129 147 162 141 138 145 135 130 130 124 130 143 133 126 124 106
320 301 313 337 335 319 291 277 299 317 320 333 337 322 315 307 299 297 288 288 307 337 345 317 318 317 313 322 321 296 270 254 257 271 265 268 267 278 304 283 239 224 9 343 209 172 198 238 223 223 232 235 236 233 229 224 222 218 219 232 239 232 232 221 186 201 199 223 252 148 140 158 158 179 175 148 151 150 135 163 170 133 130 137 121 115 116 114
304 314 344 357 328 321 321 320 353 356 332 333 337 317 316 313 304 301 301 317 350 348 324 322 358 339 323 333 333 315 293 266 249 260 268 284 311 333 333 304 263 20 22 329 253 178 203 230 225 228 237 241 244 246 239 228 235 238 227 224 227 228 229 220 201 208 206 217 247 139 141 155 188 225 192 154 164 155 140 187 184 129 129 137 124 131 139 145
315 318 354 11 328 320 328 327 336 336 320 317 318 309 306 304 303 314 332 344 358 352 332 355 16 357 348 353 338 316 308 282 258 273 307 335 341 340 336 309 290 6 11 325 289 275 237 227 221 226 236 242 243 248 247 238 238 250 251 240 229 225 225 220 208 208 208 203 156 140 156 171 189 217 194 158 169 169 156 182 168 134 143 146 139 160 165 155
336 320 342 355 334 312 308 308 313 313 306 302 299 297 295 300 308 320 339 343 353 2 342 340 1 356 357 5 338 309 322 308 294 329 354 352 342 338 343 320 309 345 349 329 325 308 263 237 226 229 236 241 243 246 248 247 248 250 255 253 240 230 227 222 214 211 211 209 189 173 184 205 196 188 173 157 167 174 164 171 164 151 157 154 154 173 172 157
353 326 335 336 321 309 300 300 304 298 297 297 288 293 299 306 317 325 334 335 338 2 355 350 357 350 348 1 340 308 331 328 316 330 342 341 340 343 349 331 323 338 335 324 330 320 289 243 225 235 241 242 246 249 245 244 248 247 246 244 239 234 231 228 223 214 206 212 215 195 179 203 193 132 138 156 170 174 173 175 173 164 159 158 165 175 170 160
356 324 323 310 300 313 307 300 299 287 291 297 287 305 324 319 323 329 323 319 324 349 355 350 347 339 344 3 349 329 332 325 314 318 321 318 318 320 321 312 311 322 324 315 321 325 311 270 237 246 253 250 251 251 246 243 246 246 240 235 232 229 228 229 229 221 210 214 224 212 196 202 184 143 148 162 172 187 191 178 173 172 164 163 174 177 170 164
355 329 324 307 288 299 296 290 287 277 285 327 301 308 324 321 330 336 323 314 314 313 327 336 333 327 333 353 343 324 317 314 311 311 305 295 292 293 293 291 289 289 294 298 304 311 309 294 264 253 258 260 254 252 253 253 251 246 237 237 243 242 233 230 228 221 219 220 218 220 216 187 121 146 177 165 165 214 222 180 170 180 167 163 180 184 171 164